Time,TemperatureF,DewpointF,PressureIn,WindDirection,WindDirectionDegrees,WindSpeedMPH,WindSpeedGustMPH,Humidity,HourlyPrecipIn,Conditions,Clouds,dailyrainin,SoftwareType,DateUTC
2013-09-17 00:00:00,47.5,43.8,30.40,SE,128,0.0,0.0,87,0.00,,,0.00,Wunderground v.1.15,2013-09-17 05:00:00,
2013-09-17 00:05:00,47.3,43.9,30.41,SE,128,0.0,0.0,88,0.00,,,0.00,Wunderground v.1.15,2013-09-17 05:05:00,
2013-09-17 00:15:00,47.1,43.7,30.41,SE,128,0.0,0.0,88,0.00,,,0.00,Wunderground v.1.15,2013-09-17 05:15:00,
2013-09-17 00:20:00,47.0,43.6,30.41,SE,128,0.0,0.0,88,0.00,,,0.00,Wunderground v.1.15,2013-09-17 05:20:00,
2013-09-17 00:25:00,46.9,43.5,30.40,SE,128,0.0,0.0,88,0.00,,,0.00,Wunderground v.1.15,2013-09-17 05:25:00,
2013-09-17 00:30:00,46.7,44.5,30.40,SE,128,0.0,0.0,92,0.00,,,0.00,Wunderground v.1.15,2013-09-17 05:30:00,
2013-09-17 00:35:00,46.6,43.2,30.40,SE,128,0.0,0.0,88,0.00,,,0.00,Wunderground v.1.15,2013-09-17 05:35:00,
2013-09-17 00:45:00,46.5,43.4,30.40,SE,128,0.0,0.0,89,0.00,,,0.00,Wunderground v.1.15,2013-09-17 05:45:00,
2013-09-17 00:50:00,46.4,43.3,30.40,SE,128,0.0,0.0,89,0.00,,,0.00,Wunderground v.1.15,2013-09-17 05:50:00,
2013-09-17 00:55:00,46.3,43.2,30.40,SE,128,0.0,0.0,89,0.00,,,0.00,Wunderground v.1.15,2013-09-17 05:55:00,
2013-09-17 01:00:00,46.3,43.2,30.40,SE,128,0.0,0.0,89,0.00,,,0.00,Wunderground v.1.15,2013-09-17 06:00:00,
2013-09-17 01:05:00,46.1,43.0,30.40,SE,128,0.0,0.0,89,0.00,,,0.00,Wunderground v.1.15,2013-09-17 06:05:00,
2013-09-17 01:15:00,45.9,42.8,30.40,SE,128,0.0,0.0,89,0.00,,,0.00,Wunderground v.1.15,2013-09-17 06:15:00,
2013-09-17 01:20:00,45.8,42.7,30.40,SE,128,0.0,0.0,89,0.00,,,0.00,Wunderground v.1.15,2013-09-17 06:20:00,
2013-09-17 01:25:00,45.6,42.5,30.40,SE,128,0.0,0.0,89,0.00,,,0.00,Wunderground v.1.15,2013-09-17 06:25:00,
2013-09-17 01:30:00,45.5,42.4,30.40,SE,128,0.0,0.0,89,0.00,,,0.00,Wunderground v.1.15,2013-09-17 06:30:00,
2013-09-17 01:40:00,45.1,42.1,30.40,SE,128,0.0,0.0,89,0.00,,,0.00,Wunderground v.1.15,2013-09-17 06:40:00,
2013-09-17 01:45:00,45.0,42.0,30.41,SE,128,0.0,0.0,89,0.00,,,0.00,Wunderground v.1.15,2013-09-17 06:45:00,
2013-09-17 01:55:00,44.5,41.5,30.40,SE,128,0.0,0.0,89,0.00,,,0.00,Wunderground v.1.15,2013-09-17 06:55:00,
2013-09-17 02:00:00,44.3,41.3,30.40,SE,128,0.0,0.0,89,0.00,,,0.00,Wunderground v.1.15,2013-09-17 07:00:00,
2013-09-17 02:05:00,44.0,41.0,30.40,SE,128,0.0,0.0,89,0.00,,,0.00,Wunderground v.1.15,2013-09-17 07:05:00,
2013-09-17 02:15:00,43.7,41.0,30.40,SE,128,0.0,0.0,90,0.00,,,0.00,Wunderground v.1.15,2013-09-17 07:15:00,
2013-09-17 02:25:00,43.3,40.6,30.40,SE,128,0.0,0.0,90,0.00,,,0.00,Wunderground v.1.15,2013-09-17 07:25:00,
2013-09-17 02:30:00,43.2,40.5,30.40,SE,128,0.0,0.0,90,0.00,,,0.00,Wunderground v.1.15,2013-09-17 07:30:00,
2013-09-17 02:35:00,43.1,40.4,30.40,SE,128,0.0,0.0,90,0.00,,,0.00,Wunderground v.1.15,2013-09-17 07:35:00,
2013-09-17 02:40:00,43.1,40.4,30.40,SE,128,0.0,0.0,90,0.00,,,0.00,Wunderground v.1.15,2013-09-17 07:40:00,
2013-09-17 02:45:00,43.0,40.3,30.40,SE,128,0.0,0.0,90,0.00,,,0.00,Wunderground v.1.15,2013-09-17 07:45:00,
2013-09-17 02:50:00,42.9,40.2,30.39,SE,128,0.0,0.0,90,0.00,,,0.00,Wunderground v.1.15,2013-09-17 07:50:00,
2013-09-17 03:00:00,42.9,40.2,30.39,SE,128,0.0,0.0,90,0.00,,,0.00,Wunderground v.1.15,2013-09-17 08:00:00,
2013-09-17 03:05:00,42.8,40.1,30.39,SE,128,0.0,0.0,90,0.00,,,0.00,Wunderground v.1.15,2013-09-17 08:05:00,
2013-09-17 03:15:00,42.7,40.3,30.39,SE,128,0.0,0.0,91,0.00,,,0.00,Wunderground v.1.15,2013-09-17 08:15:00,
2013-09-17 03:20:00,42.7,40.3,30.39,SE,128,0.0,0.0,91,0.00,,,0.00,Wunderground v.1.15,2013-09-17 08:20:00,
2013-09-17 03:25:00,42.7,40.3,30.39,SE,128,0.0,0.0,91,0.00,,,0.00,Wunderground v.1.15,2013-09-17 08:25:00,
2013-09-17 03:30:00,42.6,40.2,30.39,SE,128,0.0,0.0,91,0.00,,,0.00,Wunderground v.1.15,2013-09-17 08:30:00,
2013-09-17 03:35:00,42.5,40.1,30.39,SE,128,0.0,0.0,91,0.00,,,0.00,Wunderground v.1.15,2013-09-17 08:35:00,
2013-09-17 03:40:00,42.4,40.0,30.39,SE,128,0.0,0.0,91,0.00,,,0.00,Wunderground v.1.15,2013-09-17 08:40:00,
2013-09-17 03:45:00,42.3,39.9,30.39,SE,128,0.0,0.0,91,0.00,,,0.00,Wunderground v.1.15,2013-09-17 08:45:00,
2013-09-17 03:50:00,42.2,39.8,30.39,SE,128,0.0,0.0,91,0.00,,,0.00,Wunderground v.1.15,2013-09-17 08:50:00,
2013-09-17 03:55:00,42.1,39.7,30.39,SE,128,0.0,0.0,91,0.00,,,0.00,Wunderground v.1.15,2013-09-17 08:55:00,
2013-09-17 04:05:00,42.0,39.6,30.38,SE,128,0.0,0.0,91,0.00,,,0.00,Wunderground v.1.15,2013-09-17 09:05:00,
2013-09-17 04:15:00,41.9,39.5,30.38,SE,128,0.0,0.0,91,0.00,,,0.00,Wunderground v.1.15,2013-09-17 09:15:00,
2013-09-17 04:20:00,41.9,39.5,30.38,SE,128,0.0,0.0,91,0.00,,,0.00,Wunderground v.1.15,2013-09-17 09:20:00,
2013-09-17 04:25:00,41.9,39.5,30.38,SE,128,0.0,0.0,91,0.00,,,0.00,Wunderground v.1.15,2013-09-17 09:25:00,
2013-09-17 04:35:00,41.9,39.5,30.38,SE,128,0.0,0.0,91,0.00,,,0.00,Wunderground v.1.15,2013-09-17 09:35:00,
2013-09-17 04:40:00,41.9,39.5,30.38,SE,128,0.0,0.0,91,0.00,,,0.00,Wunderground v.1.15,2013-09-17 09:40:00,
2013-09-17 04:50:00,41.9,39.5,30.38,SE,128,0.0,0.0,91,0.00,,,0.00,Wunderground v.1.15,2013-09-17 09:50:00,
2013-09-17 04:55:00,41.9,39.5,30.37,SE,128,0.0,0.0,91,0.00,,,0.00,Wunderground v.1.15,2013-09-17 09:55:00,
2013-09-17 05:00:00,41.8,39.4,30.37,SE,128,0.0,0.0,91,0.00,,,0.00,Wunderground v.1.15,2013-09-17 10:00:00,
2013-09-17 05:05:00,41.8,39.6,30.37,SE,128,0.0,0.0,92,0.00,,,0.00,Wunderground v.1.15,2013-09-17 10:05:00,
2013-09-17 05:15:00,41.9,39.7,30.38,SE,128,0.0,0.0,92,0.00,,,0.00,Wunderground v.1.15,2013-09-17 10:15:00,
2013-09-17 05:20:00,41.9,39.7,30.37,SE,128,0.0,0.0,92,0.00,,,0.00,Wunderground v.1.15,2013-09-17 10:20:00,
2013-09-17 05:30:00,41.9,39.7,30.38,SE,128,0.0,0.0,92,0.00,,,0.00,Wunderground v.1.15,2013-09-17 10:30:00,
2013-09-17 05:35:00,41.9,39.7,30.37,SE,128,0.0,0.0,92,0.00,,,0.00,Wunderground v.1.15,2013-09-17 10:35:00,
2013-09-17 05:40:00,41.9,39.7,30.37,SE,128,0.0,0.0,92,0.00,,,0.00,Wunderground v.1.15,2013-09-17 10:40:00,
2013-09-17 05:50:00,41.8,39.6,30.37,SE,128,0.0,0.0,92,0.00,,,0.00,Wunderground v.1.15,2013-09-17 10:50:00,
2013-09-17 06:00:00,41.8,39.6,30.37,SE,128,0.0,0.0,92,0.00,,,0.00,Wunderground v.1.15,2013-09-17 11:00:00,
2013-09-17 06:05:00,41.9,39.7,30.37,SE,128,0.0,0.0,92,0.00,,,0.00,Wunderground v.1.15,2013-09-17 11:05:00,
2013-09-17 06:15:00,42.1,39.9,30.36,SE,128,0.0,0.0,92,0.00,,,0.00,Wunderground v.1.15,2013-09-17 11:15:00,
2013-09-17 06:25:00,42.2,40.0,30.36,SE,128,0.0,0.0,92,0.00,,,0.00,Wunderground v.1.15,2013-09-17 11:25:00,
2013-09-17 06:30:00,42.2,40.0,30.36,SE,128,0.0,0.0,92,0.00,,,0.00,Wunderground v.1.15,2013-09-17 11:30:00,
2013-09-17 06:35:00,42.3,40.1,30.36,SE,128,0.0,0.0,92,0.00,,,0.00,Wunderground v.1.15,2013-09-17 11:35:00,
2013-09-17 06:45:00,42.4,40.2,30.36,SE,128,0.0,0.0,92,0.00,,,0.00,Wunderground v.1.15,2013-09-17 11:45:00,
2013-09-17 06:50:00,42.5,40.3,30.36,SE,128,0.0,0.0,92,0.00,,,0.00,Wunderground v.1.15,2013-09-17 11:50:00,
2013-09-17 06:55:00,42.5,40.3,30.37,SE,128,0.0,0.0,92,0.00,,,0.00,Wunderground v.1.15,2013-09-17 11:55:00,
2013-09-17 07:00:00,42.7,40.5,30.37,SE,128,0.0,0.0,92,0.00,,,0.00,Wunderground v.1.15,2013-09-17 12:00:00,
2013-09-17 07:05:00,42.9,40.7,30.37,SE,128,0.0,0.0,92,0.00,,,0.00,Wunderground v.1.15,2013-09-17 12:05:00,
2013-09-17 07:15:00,43.4,41.2,30.38,SE,128,0.0,0.0,92,0.00,,,0.00,Wunderground v.1.15,2013-09-17 12:15:00,
2013-09-17 07:20:00,43.7,41.8,30.37,SE,128,0.0,0.0,93,0.00,,,0.00,Wunderground v.1.15,2013-09-17 12:20:00,
2013-09-17 07:25:00,43.9,41.7,30.38,SE,128,0.0,0.0,92,0.00,,,0.00,Wunderground v.1.15,2013-09-17 12:25:00,
2013-09-17 07:30:00,44.2,42.3,30.38,SE,128,0.0,0.0,93,0.00,,,0.00,Wunderground v.1.15,2013-09-17 12:30:00,
2013-09-17 07:35:00,44.4,42.5,30.38,SE,128,0.0,0.0,93,0.00,,,0.00,Wunderground v.1.15,2013-09-17 12:35:00,
2013-09-17 07:45:00,44.9,43.0,30.38,SE,128,0.0,0.0,93,0.00,,,0.00,Wunderground v.1.15,2013-09-17 12:45:00,
2013-09-17 07:50:00,45.0,43.1,30.38,SE,128,0.0,0.0,93,0.00,,,0.00,Wunderground v.1.15,2013-09-17 12:50:00,
2013-09-17 07:55:00,45.4,43.5,30.38,SE,128,0.0,0.0,93,0.00,,,0.00,Wunderground v.1.15,2013-09-17 12:55:00,
2013-09-17 08:00:00,45.6,43.7,30.38,SE,128,0.0,0.0,93,0.00,,,0.00,Wunderground v.1.15,2013-09-17 13:00:00,
2013-09-17 08:05:00,45.9,44.0,30.38,SE,128,0.0,0.0,93,0.00,,,0.00,Wunderground v.1.15,2013-09-17 13:05:00,
2013-09-17 08:15:00,46.7,44.8,30.38,SE,128,0.0,0.0,93,0.00,,,0.00,Wunderground v.1.15,2013-09-17 13:15:00,
2013-09-17 08:20:00,47.1,45.2,30.38,SE,128,0.0,0.0,93,0.00,,,0.00,Wunderground v.1.15,2013-09-17 13:20:00,
2013-09-17 08:25:00,47.7,45.8,30.38,SE,137,0.0,0.0,93,0.00,,,0.00,Wunderground v.1.15,2013-09-17 13:25:00,
2013-09-17 08:30:00,48.1,46.2,30.38,SE,137,0.0,0.0,93,0.00,,,0.00,Wunderground v.1.15,2013-09-17 13:30:00,
2013-09-17 08:35:00,49.0,47.1,30.37,SE,137,0.0,0.0,93,0.00,,,0.00,Wunderground v.1.15,2013-09-17 13:35:00,
2013-09-17 08:40:00,49.5,47.6,30.37,SE,141,0.0,4.0,93,0.00,,,0.00,Wunderground v.1.15,2013-09-17 13:40:00,
2013-09-17 08:45:00,49.7,47.8,30.37,SSE,157,0.0,4.0,93,0.00,,,0.00,Wunderground v.1.15,2013-09-17 13:45:00,
2013-09-17 08:55:00,50.0,47.8,30.37,SSE,156,0.0,2.0,92,0.00,,,0.00,Wunderground v.1.15,2013-09-17 13:55:00,
2013-09-17 09:00:00,50.2,48.0,30.37,SSE,157,0.0,0.0,92,0.00,,,0.00,Wunderground v.1.15,2013-09-17 14:00:00,
2013-09-17 09:05:00,50.5,48.3,30.37,SSE,165,0.0,0.0,92,0.00,,,0.00,Wunderground v.1.15,2013-09-17 14:05:00,
2013-09-17 09:15:00,51.2,49.0,30.37,SSE,165,0.0,0.0,92,0.00,,,0.00,Wunderground v.1.15,2013-09-17 14:15:00,
2013-09-17 09:20:00,51.7,49.5,30.37,SSE,165,0.0,0.0,92,0.00,,,0.00,Wunderground v.1.15,2013-09-17 14:20:00,
2013-09-17 09:25:00,52.0,49.5,30.37,SSE,165,0.0,0.0,91,0.00,,,0.00,Wunderground v.1.15,2013-09-17 14:25:00,
2013-09-17 09:30:00,52.7,50.1,30.36,SSE,165,0.0,2.0,91,0.00,,,0.00,Wunderground v.1.15,2013-09-17 14:30:00,
2013-09-17 09:35:00,53.4,50.8,30.37,South,180,1.0,2.0,91,0.00,,,0.00,Wunderground v.1.15,2013-09-17 14:35:00,
2013-09-17 09:40:00,54.1,51.2,30.37,South,179,0.0,0.0,90,0.00,,,0.00,Wunderground v.1.15,2013-09-17 14:40:00,
2013-09-17 09:45:00,54.6,51.4,30.37,South,178,0.0,1.0,89,0.00,,,0.00,Wunderground v.1.15,2013-09-17 14:45:00,
2013-09-17 09:50:00,55.2,51.7,30.37,South,178,0.0,0.0,88,0.00,,,0.00,Wunderground v.1.15,2013-09-17 14:50:00,
2013-09-17 09:55:00,56.1,52.6,30.37,South,178,0.0,0.0,88,0.00,,,0.00,Wunderground v.1.15,2013-09-17 14:55:00,
2013-09-17 10:05:00,57.5,53.0,30.37,South,186,1.0,1.0,85,0.00,,,0.00,Wunderground v.1.15,2013-09-17 15:05:00,
2013-09-17 10:15:00,58.4,53.3,30.36,SE,129,2.0,2.0,83,0.00,,,0.00,Wunderground v.1.15,2013-09-17 15:15:00,
2013-09-17 10:25:00,59.6,53.8,30.36,SSE,167,1.0,1.0,81,0.00,,,0.00,Wunderground v.1.15,2013-09-17 15:25:00,
2013-09-17 10:30:00,59.9,53.4,30.35,East,98,1.0,5.0,79,0.00,,,0.00,Wunderground v.1.15,2013-09-17 15:30:00,
2013-09-17 10:35:00,60.3,53.4,30.35,South,169,2.0,5.0,78,0.00,,,0.00,Wunderground v.1.15,2013-09-17 15:35:00,
2013-09-17 10:40:00,60.6,53.3,30.35,SSE,167,2.0,2.0,77,0.00,,,0.00,Wunderground v.1.15,2013-09-17 15:40:00,
2013-09-17 10:45:00,60.8,53.5,30.35,South,171,2.0,2.0,77,0.00,,,0.00,Wunderground v.1.15,2013-09-17 15:45:00,
2013-09-17 10:55:00,61.9,54.2,30.35,East,91,1.0,1.0,76,0.00,,,0.00,Wunderground v.1.15,2013-09-17 15:55:00,
2013-09-17 11:00:00,62.6,54.6,30.34,SSE,165,1.0,4.0,75,0.00,,,0.00,Wunderground v.1.15,2013-09-17 16:00:00,
2013-09-17 11:05:00,63.2,54.4,30.34,ESE,110,1.0,4.0,73,0.00,,,0.00,Wunderground v.1.15,2013-09-17 16:05:00,
2013-09-17 11:15:00,64.5,54.9,30.34,SSE,160,1.0,1.0,71,0.00,,,0.00,Wunderground v.1.15,2013-09-17 16:15:00,
2013-09-17 11:20:00,65.3,54.9,30.34,ESE,114,1.0,1.0,69,0.00,,,0.00,Wunderground v.1.15,2013-09-17 16:20:00,
2013-09-17 11:25:00,65.4,54.6,30.33,ESE,103,1.0,5.0,68,0.00,,,0.00,Wunderground v.1.15,2013-09-17 16:25:00,
2013-09-17 11:30:00,65.5,55.5,30.33,ESE,105,1.0,1.0,70,0.00,,,0.00,Wunderground v.1.15,2013-09-17 16:30:00,
2013-09-17 11:40:00,66.5,54.4,30.33,SSE,151,2.0,2.0,65,0.00,,,0.00,Wunderground v.1.15,2013-09-17 16:40:00,
2013-09-17 11:45:00,66.2,54.1,30.32,SSE,148,1.0,2.0,65,0.00,,,0.00,Wunderground v.1.15,2013-09-17 16:45:00,
2013-09-17 11:50:00,66.1,55.2,30.32,SSE,148,0.0,0.0,68,0.00,,,0.00,Wunderground v.1.15,2013-09-17 16:50:00,
2013-09-17 11:55:00,66.0,54.7,30.32,SSE,153,1.0,1.0,67,0.00,,,0.00,Wunderground v.1.15,2013-09-17 16:55:00,
2013-09-17 12:05:00,68.3,55.6,30.32,SSE,168,1.0,6.0,64,0.00,,,0.00,Wunderground v.1.15,2013-09-17 17:05:00,
2013-09-17 12:15:00,67.8,55.6,30.32,SE,142,1.0,2.0,65,0.00,,,0.00,Wunderground v.1.15,2013-09-17 17:15:00,
2013-09-17 12:20:00,68.4,55.7,30.31,SSE,159,1.0,1.0,64,0.00,,,0.00,Wunderground v.1.15,2013-09-17 17:20:00,
2013-09-17 12:25:00,68.8,55.7,30.31,South,171,1.0,1.0,63,0.00,,,0.00,Wunderground v.1.15,2013-09-17 17:25:00,
2013-09-17 12:35:00,68.8,55.7,30.31,SSE,156,1.0,1.0,63,0.00,,,0.00,Wunderground v.1.15,2013-09-17 17:35:00,
2013-09-17 12:40:00,68.3,55.6,30.31,SE,142,1.0,1.0,64,0.00,,,0.00,Wunderground v.1.15,2013-09-17 17:40:00,
2013-09-17 12:45:00,68.6,56.4,30.30,SSE,165,1.0,1.0,65,0.00,,,0.00,Wunderground v.1.15,2013-09-17 17:45:00,
2013-09-17 12:50:00,69.0,55.9,30.31,SSE,152,1.0,1.0,63,0.00,,,0.00,Wunderground v.1.15,2013-09-17 17:50:00,
2013-09-17 13:00:00,70.1,56.9,30.30,South,179,1.0,1.0,63,0.00,,,0.00,Wunderground v.1.15,2013-09-17 18:00:00,
2013-09-17 13:05:00,71.1,56.0,30.30,South,180,2.0,2.0,59,0.00,,,0.00,Wunderground v.1.15,2013-09-17 18:05:00,
2013-09-17 13:15:00,69.2,55.6,30.29,South,173,1.0,2.0,62,0.00,,,0.00,Wunderground v.1.15,2013-09-17 18:15:00,
2013-09-17 13:25:00,69.5,56.3,30.28,SE,143,1.0,5.0,63,0.00,,,0.00,Wunderground v.1.15,2013-09-17 18:25:00,
2013-09-17 13:30:00,69.4,55.4,30.28,SSE,163,1.0,1.0,61,0.00,,,0.00,Wunderground v.1.15,2013-09-17 18:30:00,
2013-09-17 13:35:00,69.0,55.0,30.28,SSE,164,2.0,2.0,61,0.00,,,0.00,Wunderground v.1.15,2013-09-17 18:35:00,
2013-09-17 13:40:00,68.8,55.7,30.27,South,186,1.0,1.0,63,0.00,,,0.00,Wunderground v.1.15,2013-09-17 18:40:00,
2013-09-17 13:50:00,68.6,55.5,30.27,SSE,160,1.0,1.0,63,0.00,,,0.00,Wunderground v.1.15,2013-09-17 18:50:00,
2013-09-17 14:00:00,68.4,54.9,30.27,SSE,163,1.0,1.0,62,0.00,,,0.00,Wunderground v.1.15,2013-09-17 19:00:00,
2013-09-17 14:05:00,68.2,55.1,30.27,South,172,1.0,1.0,63,0.00,,,0.00,Wunderground v.1.15,2013-09-17 19:05:00,
2013-09-17 14:15:00,68.1,55.5,30.26,SSE,159,1.0,1.0,64,0.00,,,0.00,Wunderground v.1.15,2013-09-17 19:15:00,
2013-09-17 14:20:00,68.1,55.5,30.26,SSE,166,1.0,1.0,64,0.00,,,0.00,Wunderground v.1.15,2013-09-17 19:20:00,
2013-09-17 14:25:00,68.3,55.6,30.26,SSE,165,0.0,1.0,64,0.00,,,0.00,Wunderground v.1.15,2013-09-17 19:25:00,
2013-09-17 14:30:00,68.6,55.9,30.26,SSE,148,0.0,0.0,64,0.00,,,0.00,Wunderground v.1.15,2013-09-17 19:30:00,
2013-09-17 14:40:00,69.1,56.0,30.25,SSE,150,1.0,1.0,63,0.00,,,0.00,Wunderground v.1.15,2013-09-17 19:40:00,
2013-09-17 14:45:00,69.8,56.2,30.25,SE,144,1.0,1.0,62,0.00,,,0.00,Wunderground v.1.15,2013-09-17 19:45:00,
2013-09-17 14:55:00,69.7,56.1,30.25,South,180,1.0,8.0,62,0.00,,,0.00,Wunderground v.1.15,2013-09-17 19:55:00,
2013-09-17 15:00:00,69.5,55.5,30.25,SSE,168,2.0,2.0,61,0.00,,,0.00,Wunderground v.1.15,2013-09-17 20:00:00,
2013-09-17 15:05:00,69.4,56.3,30.25,SSE,165,2.0,5.0,63,0.00,,,0.00,Wunderground v.1.15,2013-09-17 20:05:00,
2013-09-17 15:15:00,69.4,56.7,30.24,SSE,161,1.0,1.0,64,0.00,,,0.00,Wunderground v.1.15,2013-09-17 20:15:00,
2013-09-17 15:20:00,69.6,56.9,30.24,SSE,160,1.0,1.0,64,0.00,,,0.00,Wunderground v.1.15,2013-09-17 20:20:00,
2013-09-17 15:30:00,69.0,56.3,30.23,ESE,105,1.0,1.0,64,0.00,,,0.00,Wunderground v.1.15,2013-09-17 20:30:00,
2013-09-17 15:35:00,68.9,56.6,30.23,SSE,159,1.0,4.0,65,0.00,,,0.00,Wunderground v.1.15,2013-09-17 20:35:00,
2013-09-17 15:45:00,68.6,56.4,30.23,SSE,160,2.0,2.0,65,0.00,,,0.00,Wunderground v.1.15,2013-09-17 20:45:00,
2013-09-17 15:50:00,68.7,56.9,30.23,SSE,155,1.0,1.0,66,0.00,,,0.00,Wunderground v.1.15,2013-09-17 20:50:00,
2013-09-17 15:55:00,68.9,57.1,30.23,SE,125,0.0,1.0,66,0.00,,,0.00,Wunderground v.1.15,2013-09-17 20:55:00,
2013-09-17 16:05:00,68.9,56.6,30.22,South,177,1.0,1.0,65,0.00,,,0.00,Wunderground v.1.15,2013-09-17 21:05:00,
2013-09-17 16:15:00,68.5,56.7,30.22,SSE,163,1.0,2.0,66,0.00,,,0.00,Wunderground v.1.15,2013-09-17 21:15:00,
2013-09-17 16:20:00,68.2,56.8,30.22,ESE,118,1.0,2.0,67,0.00,,,0.00,Wunderground v.1.15,2013-09-17 21:20:00,
2013-09-17 16:25:00,68.0,56.6,30.22,SSE,164,1.0,2.0,67,0.00,,,0.00,Wunderground v.1.15,2013-09-17 21:25:00,
2013-09-17 16:35:00,67.5,56.6,30.21,SSE,161,0.0,4.0,68,0.00,,,0.00,Wunderground v.1.15,2013-09-17 21:35:00,
2013-09-17 16:40:00,67.3,56.8,30.21,SSE,163,0.0,0.0,69,0.00,,,0.00,Wunderground v.1.15,2013-09-17 21:40:00,
2013-09-17 16:45:00,67.1,56.6,30.21,SSE,160,0.0,0.0,69,0.00,,,0.00,Wunderground v.1.15,2013-09-17 21:45:00,
2013-09-17 16:50:00,67.0,56.5,30.21,SSE,160,0.0,0.0,69,0.00,,,0.00,Wunderground v.1.15,2013-09-17 21:50:00,
2013-09-17 16:55:00,66.9,56.8,30.21,SSE,160,0.0,0.0,70,0.00,,,0.00,Wunderground v.1.15,2013-09-17 21:55:00,
2013-09-17 17:05:00,65.9,57.7,30.21,SSE,160,0.0,0.0,75,0.00,,,0.00,Wunderground v.1.15,2013-09-17 22:05:00,
2013-09-17 17:15:00,65.0,58.3,30.21,SSE,160,0.0,0.0,79,0.00,,,0.01,Wunderground v.1.15,2013-09-17 22:15:00,
2013-09-17 17:20:00,64.6,58.3,30.20,SSE,165,0.0,0.0,80,0.00,,,0.01,Wunderground v.1.15,2013-09-17 22:20:00,
2013-09-17 17:25:00,64.4,58.4,30.21,SSE,165,0.0,0.0,81,0.00,,,0.01,Wunderground v.1.15,2013-09-17 22:25:00,
2013-09-17 17:35:00,64.1,58.5,30.20,SSE,164,0.0,0.0,82,0.00,,,0.01,Wunderground v.1.15,2013-09-17 22:35:00,
2013-09-17 17:40:00,64.2,58.6,30.20,SSE,165,0.0,0.0,82,0.00,,,0.01,Wunderground v.1.15,2013-09-17 22:40:00,
2013-09-17 17:45:00,64.1,58.8,30.20,SSE,165,0.0,0.0,83,0.00,,,0.01,Wunderground v.1.15,2013-09-17 22:45:00,
2013-09-17 17:50:00,64.0,58.7,30.20,SSE,165,0.0,0.0,83,0.00,,,0.01,Wunderground v.1.15,2013-09-17 22:50:00,
2013-09-17 17:55:00,63.9,59.0,30.20,SSE,164,0.0,0.0,84,0.00,,,0.01,Wunderground v.1.15,2013-09-17 22:55:00,
2013-09-17 18:00:00,63.8,58.9,30.20,SSE,165,0.0,0.0,84,0.00,,,0.01,Wunderground v.1.15,2013-09-17 23:00:00,
2013-09-17 18:05:00,63.7,59.1,30.19,SSE,165,0.0,0.0,85,0.00,,,0.01,Wunderground v.1.15,2013-09-17 23:05:00,
2013-09-17 18:15:00,63.8,58.5,30.19,SSE,164,0.0,0.0,83,0.00,,,0.01,Wunderground v.1.15,2013-09-17 23:15:00,
2013-09-17 18:20:00,63.9,58.3,30.19,SSE,164,0.0,0.0,82,0.00,,,0.01,Wunderground v.1.15,2013-09-17 23:20:00,
2013-09-17 18:30:00,64.0,58.4,30.18,South,169,0.0,0.0,82,0.00,,,0.01,Wunderground v.1.15,2013-09-17 23:30:00,
2013-09-17 18:35:00,64.0,58.1,30.18,South,169,0.0,0.0,81,0.00,,,0.01,Wunderground v.1.15,2013-09-17 23:35:00,
2013-09-17 18:40:00,64.1,57.8,30.18,SSE,168,0.0,0.0,80,0.00,,,0.01,Wunderground v.1.15,2013-09-17 23:40:00,
2013-09-17 18:45:00,64.1,57.8,30.18,South,169,0.0,0.0,80,0.00,,,0.01,Wunderground v.1.15,2013-09-17 23:45:00,
2013-09-17 18:50:00,64.1,57.8,30.18,SSE,168,0.0,0.0,80,0.00,,,0.01,Wunderground v.1.15,2013-09-17 23:50:00,
2013-09-17 18:55:00,64.0,57.7,30.18,South,169,0.0,0.0,80,0.00,,,0.01,Wunderground v.1.15,2013-09-17 23:55:00,
2013-09-17 19:05:00,63.8,57.9,30.18,South,169,0.0,0.0,81,0.00,,,0.01,Wunderground v.1.15,2013-09-18 00:05:00,
2013-09-17 19:15:00,63.7,57.8,30.18,South,169,0.0,0.0,81,0.00,,,0.01,Wunderground v.1.15,2013-09-18 00:15:00,
2013-09-17 19:20:00,63.6,57.7,30.17,SSE,168,0.0,0.0,81,0.00,,,0.01,Wunderground v.1.15,2013-09-18 00:20:00,
2013-09-17 19:25:00,63.6,57.7,30.17,South,169,0.0,0.0,81,0.00,,,0.01,Wunderground v.1.15,2013-09-18 00:25:00,
2013-09-17 19:30:00,63.4,57.5,30.17,South,169,0.0,0.0,81,0.00,,,0.01,Wunderground v.1.15,2013-09-18 00:30:00,
2013-09-17 19:40:00,63.3,57.7,30.17,South,169,0.0,0.0,82,0.00,,,0.01,Wunderground v.1.15,2013-09-18 00:40:00,
2013-09-17 19:45:00,63.3,57.4,30.17,SSE,168,0.0,0.0,81,0.00,,,0.01,Wunderground v.1.15,2013-09-18 00:45:00,
2013-09-17 19:50:00,63.3,57.4,30.17,SSE,168,0.0,0.0,81,0.00,,,0.01,Wunderground v.1.15,2013-09-18 00:50:00,
2013-09-17 19:55:00,63.3,57.7,30.17,South,169,0.0,0.0,82,0.00,,,0.01,Wunderground v.1.15,2013-09-18 00:55:00,
2013-09-17 20:00:00,63.2,57.6,30.17,South,173,0.0,1.0,82,0.00,,,0.01,Wunderground v.1.15,2013-09-18 01:00:00,
2013-09-17 20:05:00,63.2,57.6,30.17,South,174,0.0,1.0,82,0.00,,,0.01,Wunderground v.1.15,2013-09-18 01:05:00,
2013-09-17 20:15:00,63.1,57.2,30.17,South,173,0.0,0.0,81,0.00,,,0.01,Wunderground v.1.15,2013-09-18 01:15:00,
2013-09-17 20:25:00,63.0,57.1,30.17,South,169,0.0,0.0,81,0.00,,,0.01,Wunderground v.1.15,2013-09-18 01:25:00,
2013-09-17 20:30:00,63.0,57.1,30.17,South,169,0.0,0.0,81,0.00,,,0.01,Wunderground v.1.15,2013-09-18 01:30:00,
2013-09-17 20:40:00,63.0,57.1,30.17,ESE,123,0.0,0.0,81,0.00,,,0.01,Wunderground v.1.15,2013-09-18 01:40:00,
2013-09-17 20:45:00,63.0,57.1,30.17,SE,125,0.0,0.0,81,0.00,,,0.01,Wunderground v.1.15,2013-09-18 01:45:00,
2013-09-17 20:55:00,63.0,57.1,30.17,SE,125,0.0,0.0,81,0.00,,,0.01,Wunderground v.1.15,2013-09-18 01:55:00,
2013-09-17 21:00:00,63.0,57.1,30.17,SE,125,0.0,0.0,81,0.00,,,0.01,Wunderground v.1.15,2013-09-18 02:00:00,
2013-09-17 21:05:00,63.0,56.7,30.17,SE,125,0.0,0.0,80,0.00,,,0.01,Wunderground v.1.15,2013-09-18 02:05:00,
2013-09-17 21:15:00,63.0,56.7,30.17,SE,126,0.0,1.0,80,0.00,,,0.01,Wunderground v.1.15,2013-09-18 02:15:00,
2013-09-17 21:20:00,63.1,56.8,30.17,SE,126,0.0,4.0,80,0.00,,,0.01,Wunderground v.1.15,2013-09-18 02:20:00,
2013-09-17 21:25:00,63.1,56.5,30.17,SSE,151,0.0,4.0,79,0.00,,,0.01,Wunderground v.1.15,2013-09-18 02:25:00,
2013-09-17 21:30:00,63.1,56.5,30.17,SSE,151,0.0,0.0,79,0.00,,,0.01,Wunderground v.1.15,2013-09-18 02:30:00,
2013-09-17 21:35:00,63.1,56.5,30.16,SSE,150,0.0,0.0,79,0.00,,,0.01,Wunderground v.1.15,2013-09-18 02:35:00,
2013-09-17 21:45:00,63.2,56.6,30.16,SSE,152,0.0,0.0,79,0.00,,,0.01,Wunderground v.1.15,2013-09-18 02:45:00,
2013-09-17 21:50:00,63.2,56.6,30.16,SSE,167,0.0,0.0,79,0.00,,,0.01,Wunderground v.1.15,2013-09-18 02:50:00,
2013-09-17 21:55:00,63.2,56.6,30.16,SSE,167,0.0,0.0,79,0.00,,,0.01,Wunderground v.1.15,2013-09-18 02:55:00,
2013-09-17 22:00:00,63.1,56.5,30.16,South,173,0.0,2.0,79,0.00,,,0.01,Wunderground v.1.15,2013-09-18 03:00:00,
2013-09-17 22:05:00,63.0,56.4,30.16,South,173,0.0,2.0,79,0.00,,,0.01,Wunderground v.1.15,2013-09-18 03:05:00,
2013-09-17 22:20:00,62.8,56.5,30.16,SE,142,0.0,0.0,80,0.00,,,0.01,Wunderground v.1.15,2013-09-18 03:20:00,
2013-09-17 22:25:00,62.8,56.5,30.16,SSE,153,0.0,0.0,80,0.00,,,0.01,Wunderground v.1.15,2013-09-18 03:25:00,
2013-09-17 22:35:00,62.7,56.4,30.16,SSE,153,0.0,0.0,80,0.00,,,0.01,Wunderground v.1.15,2013-09-18 03:35:00,
2013-09-17 22:40:00,62.8,56.5,30.16,SSE,153,0.0,0.0,80,0.00,,,0.01,Wunderground v.1.15,2013-09-18 03:40:00,
2013-09-17 22:45:00,62.7,56.4,30.16,SSE,153,0.0,0.0,80,0.00,,,0.01,Wunderground v.1.15,2013-09-18 03:45:00,
2013-09-17 22:50:00,62.7,56.4,30.16,SSE,153,0.0,0.0,80,0.00,,,0.01,Wunderground v.1.15,2013-09-18 03:50:00,
2013-09-17 22:55:00,62.6,56.3,30.16,SSE,154,0.0,0.0,80,0.00,,,0.01,Wunderground v.1.15,2013-09-18 03:55:00,
2013-09-17 23:05:00,62.6,56.3,30.16,SSE,154,0.0,0.0,80,0.00,,,0.01,Wunderground v.1.15,2013-09-18 04:05:00,
2013-09-17 23:10:00,62.6,56.3,30.15,SSE,153,0.0,0.0,80,0.00,,,0.01,Wunderground v.1.15,2013-09-18 04:10:00,
2013-09-17 23:15:00,62.6,56.3,30.15,SSE,154,0.0,0.0,80,0.00,,,0.01,Wunderground v.1.15,2013-09-18 04:15:00,
2013-09-17 23:20:00,62.6,56.3,30.15,SSE,154,0.0,0.0,80,0.00,,,0.01,Wunderground v.1.15,2013-09-18 04:20:00,
2013-09-17 23:25:00,62.6,56.3,30.15,SSE,153,0.0,0.0,80,0.00,,,0.01,Wunderground v.1.15,2013-09-18 04:25:00,
2013-09-17 23:30:00,62.6,56.3,30.15,SSE,154,0.0,0.0,80,0.00,,,0.01,Wunderground v.1.15,2013-09-18 04:30:00,
2013-09-17 23:40:00,62.5,56.2,30.14,SSE,154,0.0,0.0,80,0.00,,,0.01,Wunderground v.1.15,2013-09-18 04:40:00,
2013-09-17 23:50:00,62.4,56.1,30.14,SSE,153,0.0,0.0,80,0.00,,,0.01,Wunderground v.1.15,2013-09-18 04:50:00,
2013-09-17 23:55:00,62.3,56.0,30.14,SSE,155,0.0,0.0,80,0.00,,,0.01,Wunderground v.1.15,2013-09-18 04:55:00,